CW8198 Weather Reports


time (UTC)temp
F
wind
direction
speed
knots
gust
knots
rain 1hr
in
rain 24hr
in
rain mn
in
humidity
%
barometer
mb
20260505235549 54 23 5.2 13.0 0.00 0.06 0.03 40 1012.6
20260505235049 54 18 7.0 13.0 0.00 0.06 0.03 40 1012.5
20260505234048 54 205 5.2 13.9 0.00 0.06 0.03 39 1012.4
20260505232044 55 30 8.7 12.2 0.00 0.06 0.03 38 1012.3
20260505231542 55 11 6.1 13.9 0.00 0.06 0.03 39 1012.3
20260505231041 55 13 7.8 16.5 0.00 0.06 0.03 39 1012.3
20260505230541 56 11 5.2 16.5 0.00 0.06 0.03 39 1012.2
20260505230040 56 347 6.1 15.6 0.00 0.06 0.03 39 1012.3
20260505225540 57 351 7.0 17.4 0.00 0.06 0.03 38 1012.2
20260505225040 58 303 8.7 17.4 0.00 0.06 0.03 38 1012.1
20260505224539 58 9 3.5 11.3 0.00 0.06 0.03 38 1012.1
20260505224039 59 325 2.6 13.0 0.00 0.06 0.03 39 1012.0
20260505223540 59 301 6.1 13.0 0.00 0.06 0.03 39 1012.0
20260505223038 59 312 4.3 13.0 0.00 0.06 0.03 39 1012.0
20260505222039 59 275 3.5 12.2 0.00 0.06 0.03 38 1012.0
20260505221537 59 287 3.5 9.6 0.00 0.06 0.03 41 1012.0
20260505221037 58 338 3.5 10.4 0.00 0.06 0.03 40 1012.0
20260505220535 58 303 3.5 12.2 0.00 0.06 0.03 40 1011.9
20260505220035 58 9 6.1 12.2 0.00 0.06 0.03 41 1011.9
20260505215534 58 277 4.3 9.6 0.00 0.06 0.03 39 1011.8
20260505215032 58 257 3.5 12.2 0.00 0.06 0.03 38 1011.9
20260505214032 58 300 5.2 13.0 0.00 0.06 0.03 38 1011.9
20260505213532 59 297 7.0 13.0 0.00 0.06 0.03 38 1012.0
20260505213032 59 332 6.1 11.3 0.00 0.06 0.03 37 1012.0
20260505212532 59 350 3.5 12.2 0.00 0.06 0.03 41 1012.0
20260505212033 58 268 5.2 12.2 0.00 0.06 0.03 42 1012.2
20260505211531 58 16 2.6 13.9 0.00 0.06 0.03 41 1012.2
20260505211031 58 323 4.3 13.9 0.00 0.06 0.03 39 1012.1
20260505210531 58 314 7.8 13.9 0.00 0.06 0.03 41 1012.2
20260505210030 58 32 5.2 15.6 0.00 0.06 0.03 40 1012.3
20260505205529 58 15 9.6 15.6 0.00 0.06 0.03 40 1012.4
20260505205029 59 10 6.1 12.2 0.00 0.06 0.03 41 1012.4
20260505204528 59 57 5.2 12.2 0.00 0.06 0.03 39 1012.5
20260505204028 60 336 3.5 13.0 0.00 0.06 0.03 41 1012.5
20260505203528 60 346 7.8 13.0 0.00 0.06 0.03 39 1012.5
20260505203028 60 328 3.5 8.7 0.00 0.06 0.03 40 1012.6
20260505202527 60 344 5.2 12.2 0.00 0.06 0.03 39 1012.6
20260505202029 60 292 4.3 13.0 0.00 0.06 0.03 39 1012.6
20260505200525 61 325 5.2 13.9 0.00 0.06 0.03 39 1012.7
20260505200025 61 350 5.2 11.3 0.00 0.06 0.03 41 1012.7
20260505195524 61 339 4.3 16.5 0.00 0.06 0.03 41 1012.7
20260505195024 61 16 6.1 16.5 0.00 0.06 0.03 39 1012.7
20260505194524 61 311 4.3 13.9 0.00 0.06 0.03 41 1012.6
20260505194024 60 342 3.5 13.9 0.00 0.06 0.03 43 1012.8
20260505193524 60 330 5.2 14.8 0.00 0.06 0.03 40 1012.8
20260505193022 60 13 7.0 15.6 0.00 0.06 0.03 39 1012.7
20260505192024 61 309 5.2 13.0 0.00 0.06 0.03 38 1012.9
20260505191522 62 11 4.3 9.6 0.00 0.06 0.03 40 1013.0
20260505191022 62 302 3.5 13.0 0.00 0.06 0.03 39 1013.0
20260505190522 62 334 5.2 13.0 0.00 0.06 0.03 39 1013.0
20260505190020 62 277 3.5 8.7 0.00 0.06 0.03 44 1013.1
20260505185520 61 303 4.3 11.3 0.00 0.06 0.03 44 1013.1
20260505185020 60 329 3.5 13.9 0.00 0.06 0.03 42 1013.1
20260505184520 60 38 6.1 14.8 0.00 0.06 0.03 42 1013.1
20260505184019 60 319 4.3 18.2 0.00 0.06 0.03 42 1013.1
20260505183518 60 334 9.6 18.2 0.00 0.06 0.03 40 1013.3
20260505183018 62 344 4.3 11.3 0.00 0.06 0.03 38 1013.3
20260505182518 62 306 3.5 13.9 0.00 0.06 0.03 44 1013.3
20260505182019 61 329 5.2 14.8 0.00 0.06 0.03 47 1013.4
20260505181517 61 329 5.2 14.8 0.00 0.06 0.03 43 1013.4
20260505181016 61 324 7.8 13.9 0.00 0.06 0.03 44 1013.4
20260505180514 61 11 5.2 14.8 0.00 0.06 0.03 43 1013.4
20260505180012 61 342 6.1 14.8 0.00 0.06 0.03 46 1013.5
20260505175512 61 346 7.8 14.8 0.00 0.06 0.03 43 1013.4
20260505175011 61 314 4.3 11.3 0.00 0.06 0.03 46 1013.3
20260505174511 61 309 3.5 11.3 0.00 0.06 0.03 45 1013.3
20260505173011 59 317 3.5 11.3 0.00 0.06 0.03 48 1013.5
20260505172509 58 9 6.1 11.3 0.00 0.06 0.03 53 1013.7
20260505172010 57 294 2.6 7.0 0.00 0.06 0.03 53 1013.6
20260505171509 57 51 0.9 6.1 0.00 0.06 0.03 47 1013.8
20260505171008 57 254 1.7 6.1 0.00 0.06 0.03 55 1013.7
20260505170508 57 286 1.7 6.1 0.00 0.06 0.03 53 1013.9
20260505170008 56 289 1.7 6.1 0.00 0.06 0.03 50 1013.9
20260505165507 56 286 3.5 6.1 0.00 0.06 0.03 52 1013.9
20260505165007 56 317 1.7 5.2 0.00 0.06 0.03 55 1013.9
20260505164506 56 325 2.6 5.2 0.00 0.06 0.03 53 1014.1
20260505163506 56 16 1.7 5.2 0.00 0.06 0.03 56 1014.0
20260505163005 55 281 1.7 7.0 0.00 0.06 0.03 60 1013.9
20260505162506 54 9 0.9 7.8 0.00 0.06 0.03 60 1013.7
20260505162005 54 338 1.7 7.8 0.00 0.06 0.03 62 1013.6
20260505161005 53 309 1.7 7.0 0.00 0.06 0.03 63 1013.6
20260505160503 53 279 1.7 7.0 0.00 0.06 0.03 65 1013.5
20260505153003 50 323 1.7 7.0 0.00 0.06 0.03 71 1013.4
20260505152002 49 247 1.7 7.0 0.00 0.06 0.03 72 1013.3
20260505151502 49 334 2.6 7.8 0.00 0.06 0.03 72 1013.3
20260505151001 49 334 2.6 7.8 0.00 0.06 0.03 74 1013.4
20260505150501 49 309 2.6 7.0 0.00 0.06 0.03 74 1013.1
20260505140459 46 282 1.7 5.2 0.00 0.06 0.03 83 1013.0
20260505124948 46 19 0.9 2.6 0.00 0.06 0.03 88 1011.8
20260505124448 45 334 0.9 2.6 0.00 0.06 0.03 89 1011.7
20260505122947 44 325 0.9 1.7 0.00 0.06 0.03 88 1011.4
20260505122447 44 275 0.0 1.7 0.00 0.06 0.03 88 1011.4
20260505121946 44 255 0.9 1.7 0.00 0.06 0.03 88 1011.2
20260505121446 44 338 0.0 1.7 0.00 0.06 0.03 88 1011.1
20260505120944 44 319 0.9 1.7 0.00 0.06 0.03 88 1010.9
20260505115944 44 229 0.9 1.7 0.00 0.06 0.03 88 1010.8
20260505115444 44 9 0.0 0.9 0.00 0.06 0.03 87 1010.6
20260505114442 44 319 0.9 1.7 0.00 0.06 0.03 87 1010.4
20260505113943 44 26 0.9 1.7 0.00 0.06 0.03 87 1010.3
20260505113442 44 9 0.0 0.9 0.00 0.06 0.03 87 1010.5
20260505112944 44 34 0.0 0.9 0.00 0.06 0.03 87 1010.4
20260505112443 44 51 0.0 0.9 0.00 0.06 0.03 87 1010.4
20260505111442 44 146 0.0 0.9 0.00 0.06 0.03 87 1010.5
20260505110941 44 9 0.0 0.9 0.00 0.06 0.03 87 1010.5
20260505110441 44 137 0.0 0.9 0.00 0.06 0.03 87 1010.6
20260505101923 45 9 0.9 1.7 0.00 0.06 0.03 88 1010.9
20260505101424 45 330 0.9 2.6 0.00 0.06 0.03 88 1010.8
20260505100422 45 34 0.9 1.7 0.00 0.06 0.03 88 1010.8
20260505095917 45 325 0.9 1.7 0.00 0.06 0.03 88 1010.8
20260505095416 45 291 0.0 1.7 0.00 0.06 0.03 88 1010.7
20260505094915 45 9 0.9 1.7 0.00 0.06 0.03 88 1010.5
20260505093916 45 265 0.9 1.7 0.00 0.06 0.03 88 1010.6
20260505093414 45 265 0.0 2.6 0.00 0.06 0.03 88 1010.4
20260505092913 45 309 0.9 3.5 0.00 0.06 0.03 88 1010.3
20260505092413 45 16 1.7 3.5 0.00 0.06 0.03 88 1010.2
20260505091914 45 346 1.7 3.5 0.00 0.06 0.03 88 1009.9
20260505085912 46 334 0.9 2.6 0.00 0.06 0.03 88 1009.8
20260505085414 46 282 0.9 2.6 0.00 0.06 0.03 88 1009.7
20260505084912 46 344 0.9 2.6 0.00 0.06 0.03 87 1009.8
20260505084412 46 337 1.7 2.6 0.00 0.06 0.03 87 1009.8
20260505083911 46 348 0.9 2.6 0.00 0.06 0.03 87 1009.7
20260505083410 47 282 0.9 1.7 0.00 0.06 0.03 87 1009.7
20260505082911 47 298 0.9 1.7 0.00 0.06 0.03 87 1009.5
20260505082410 47 319 0.9 2.6 0.00 0.06 0.03 87 1009.4
20260505081910 47 9 0.0 2.6 0.00 0.06 0.03 87 1009.3
20260505081409 47 309 0.9 1.7 0.00 0.06 0.03 87 1009.3
20260505080909 47 309 0.9 0.9 0.00 0.06 0.03 87 1009.1
20260505080411 47 325 0.0 1.7 0.00 0.06 0.03 87 1009.1
20260505075908 47 291 0.0 1.7 0.00 0.06 0.03 87 1008.9
20260505075408 47 338 0.9 1.7 0.00 0.06 0.03 87 1008.7
20260505074909 47 9 0.9 1.7 0.01 0.06 0.03 87 1008.9
20260505074407 47 342 0.9 1.7 0.01 0.06 0.03 87 1008.9
20260505073406 47 9 0.9 1.7 0.01 0.06 0.03 87 1009.0
20260505072908 48 9 0.9 1.7 0.01 0.06 0.03 86 1009.0
20260505072408 48 319 0.0 0.9 0.01 0.06 0.03 86 1009.0
20260505071906 48 221 0.0 1.7 0.01 0.06 0.03 86 1009.0
20260505071405 48 178 0.9 1.7 0.01 0.06 0.03 86 1008.9
20260505070906 48 238 0.9 2.6 0.01 0.06 0.03 86 1008.9
20260505065404 48 309 0.9 1.7 0.02 0.06 0.03 85 1008.5
20260505064903 48 9 0.9 1.7 0.01 0.05 0.02 85 1008.2
20260505064404 48 26 0.0 1.7 0.01 0.05 0.02 85 1008.6
20260505063903 48 9 0.9 1.7 0.01 0.05 0.02 84 1008.9
20260505063402 48 205 0.0 0.9 0.01 0.05 0.02 84 1008.7
20260505062903 48 309 0.0 1.7 0.01 0.05 0.02 84 1008.8
20260505062402 48 165 0.9 2.6 0.01 0.05 0.02 83 1008.7
20260505061901 48 93 0.9 2.6 0.01 0.05 0.02 83 1008.7
20260505061401 48 309 0.9 2.6 0.01 0.05 0.02 82 1009.2
20260505060903 48 282 1.7 2.6 0.01 0.05 0.02 82 1009.2
20260505055856 48 9 0.0 1.7 0.01 0.04 0.01 80 1008.9
20260505055356 48 291 0.9 2.6 0.01 0.04 0.01 80 1008.9
20260505054855 48 41 0.9 2.6 0.02 0.04 0.01 80 1008.9
20260505054355 48 22 1.7 2.6 0.03 0.04 0.01 79 1009.1
20260505053854 48 342 0.0 2.6 0.03 0.04 0.01 79 1009.2
20260505053355 48 275 0.9 2.6 0.04 0.04 0.01 78 1009.4
20260505052854 48 9 0.9 2.6 0.04 0.04 0.01 77 1009.0
20260505052353 49 221 0.9 2.6 0.04 0.04 0.01 77 1008.9
20260505051353 49 105 0.9 3.5 0.04 0.04 0.01 74 1008.5
20260505050352 49 9 1.7 3.5 0.03 0.03 0.00 72 1009.0
20260505041350 52 325 1.7 7.8 0.00 0.00 0.00 60 1009.4
20260505040350 53 346 4.3 9.6 0.00 0.00 0.00 56 1009.2
20260505035348 53 20 4.3 11.3 0.00 0.00 0.00 53 1009.0
20260505034849 54 334 5.2 11.3 0.00 0.00 0.00 52 1008.9
20260505033348 54 342 7.0 12.2 0.00 0.00 0.00 51 1008.6
20260505032348 55 338 5.2 13.0 0.00 0.00 0.00 50 1008.7
20260505031846 55 319 6.1 13.0 0.00 0.00 0.00 49 1008.7
20260505031346 55 26 5.2 11.3 0.00 0.00 0.00 46 1008.9
20260505030846 55 342 4.3 12.2 0.00 0.00 0.00 45 1008.8
20260505030346 56 34 6.1 13.9 0.00 0.00 0.00 44 1008.6
20260505025845 56 23 7.0 13.9 0.00 0.00 0.00 44 1008.1
20260505024845 56 40 6.1 13.9 0.00 0.00 0.00 46 1007.9
20260505024344 56 19 5.2 12.2 0.00 0.00 0.00 46 1008.3
20260505023843 56 24 5.2 13.9 0.00 0.00 0.00 46 1007.9
20260505023344 56 346 7.0 13.9 0.00 0.00 0.00 45 1007.9
20260505022843 56 11 7.8 13.9 0.00 0.00 0.00 45 1007.9
20260505021341 56 347 9.6 16.5 0.00 0.00 0.00 44 1007.7
20260505020841 57 22 8.7 18.2 0.00 0.00 0.00 43 1007.7
20260505020341 57 319 8.7 20.0 0.00 0.00 0.00 44 1007.4
20260505015840 57 348 10.4 22.6 0.00 0.00 0.00 44 1007.6
20260505015340 57 317 7.0 19.1 0.00 0.00 0.00 45 1007.4
20260505014841 58 306 8.7 17.4 0.00 0.00 0.00 45 1007.5
20260505014339 58 337 8.7 17.4 0.00 0.00 0.00 44 1007.4
20260505013839 58 15 8.7 15.6 0.00 0.00 0.00 45 1007.1
20260505013340 58 347 7.0 15.6 0.00 0.00 0.00 45 1006.9
20260505012838 59 351 8.7 13.9 0.00 0.00 0.00 43 1006.9
20260505012340 59 336 5.2 16.5 0.00 0.00 0.00 42 1006.9
20260505011838 60 11 7.8 16.5 0.00 0.00 0.00 42 1006.7
20260505011339 60 19 11.3 20.9 0.00 0.00 0.00 40 1006.7
20260505005835 61 350 9.6 20.0 0.00 0.00 0.00 40 1006.5
20260505004834 62 337 10.4 17.4 0.00 0.00 0.00 37 1006.2
20260505004335 63 29 9.6 21.7 0.00 0.00 0.00 37 1006.4
20260505003833 63 50 12.2 21.7 0.00 0.00 0.00 36 1006.3
20260505003333 64 288 7.8 14.8 0.00 0.00 0.00 37 1006.1
20260505002832 64 13 5.2 14.8 0.00 0.00 0.00 37 1005.6
20260505001832 65 347 7.8 13.9 0.00 0.00 0.00 35 1005.8
20260505001331 65 28 8.7 19.1 0.00 0.00 0.00 36 1005.6
20260505000330 67 18 8.7 16.5 0.00 0.00 0.00 36 1005.4